User: anonymous   Login
Location: Bremen
(53.0793°N, 8.8017°E)
Time: 04:27:15
(UTC+02:00)
Language:

ISS - Orbit

View from above orbital plane
View from above orbital plane
View from above satellite
View from above satellite

Ground track
Ground track

The orbit data is extracted from the following two-line orbital elements,

1 25544U 98067A   21265.41710065  .00001884  00000-0  43161-4 0  9990
2 25544  51.6442 221.9729 0003477  40.6225 104.9818 15.48422570303663
Epoch (UTC): 22 September 2021 10:00:37
Eccentricity: 0.0003477
inclination: 51.6442°
perigee height: 419 km
apogee height: 424 km
right ascension of ascending node: 221.9729°
argument of perigee: 40.6225°
revolutions per day: 15.48422570
mean anomaly at epoch: 104.9818°
orbit number at epoch: 30366

The dashed part of the orbit path shows where the satellite is in the earth's shadow,  

DLR